Temp
-9 -9 -9 -9 -9 -9 -9 -9 -9 -9 -10 -10 -10 -10 -10 -10 -10 -10 -10 -10 -10 -10 -10 -10 -10 -9 -9 -9 -9 -9 -9 -9 -9 -9 -9 -9 -9 -9 -9 -9 -9 -9 -9 -9 -9 -9 -9 -9 -8 -8 -8 -8 -8 -8 -8 -8 -7 -7 -7 -7 -7 -7 -6 -6 -6 -5 -5 -5 -5
-9 -9 -10 -10 -10 -10 -10 -10 -10 -10 -10 -10 -10 -10 -10 -10 -10 -10 -10 -10 -10 -10 -10 -10 -10 -10 -9 -9 -9 -9 -9 -9 -9 -9 -9 -9 -9 -9 -9 -9 -9 -9 -9 -9 -9 -9 -9 -8 -8 -8 -8 -8 -8 -8 -8 -8 -8 -7 -7 -7 -7 -7 -6 -6 -5 -5 -5 -5 -5
-10 -10 -10 -10 -10 -10 -10 -10 -10 -10 -10 -10 -11 -11 -11 -11 -10 -10 -10 -10 -10 -10 -10 -10 -10 -9 -9 -9 -9 -9 -9 -9 -9 -9 -9 -9 -9 -9 -9 -9 -9 -9 -9 -9 -9 -9 -9 -9 -8 -8 -8 -8 -8 -8 -8 -8 -8 -7 -7 -7 -7 -6 -6 -6 -6 -5 -5 -5 -5
-10 -10 -10 -10 -10 -10 -10 -10 -10 -11 -11 -11 -11 -11 -11 -11 -10 -10 -10 -10 -10 -10 -10 -10 -9 -9 -9 -9 -9 -9 -9 -9 -9 -9 -9 -9 -9 -9 -9 -9 -9 -9 -9 -9 -9 -9 -9 -9 -8 -8 -8 -8 -8 -8 -8 -8 -7 -7 -7 -7 -7 -6 -6 -6 -6 -6 -6 -5 -5
-10 -10 -10 -10 -10 -10 -10 -11 -11 -11 -11 -11 -11 -11 -11 -11 -11 -10 -10 -10 -10 -10 -10 -10 -9 -9 -9 -9 -9 -9 -9 -9 -9 -9 -9 -9 -9 -9 -9 -9 -9 -9 -9 -9 -9 -9 -9 -9 -8 -8 -8 -8 -8 -8 -8 -8 -7 -7 -7 -7 -7 -6 -6 -6 -6 -6 -6 -5 -5
-10 -10 -10 -10 -10 -11 -11 -11 -11 -11 -11 -11 -11 -11 -11 -11 -11 -10 -10 -10 -10 -10 -10 -9 -9 -9 -9 -9 -9 -9 -9 -9 -9 -9 -9 -9 -9 -9 -9 -9 -9 -9 -9 -9 -9 -9 -9 -9 -8 -8 -8 -8 -8 -8 -8 -8 -7 -7 -7 -7 -7 -7 -6 -6 -6 -6 -6 -6 -5
-10 -10 -11 -11 -11 -11 -11 -11 -11 -11 -11 -11 -11 -11 -10 -10 -10 -10 -10 -10 -10 -10 -9 -9 -9 -9 -9 -9 -9 -9 -9 -9 -9 -9 -9 -9 -9 -9 -9 -9 -9 -9 -9 -9 -9 -9 -9 -9 -8 -8 -8 -8 -8 -8 -8 -7 -7 -7 -7 -7 -7 -7 -7 -6 -6 -6 -6 -6 -6
-10 -11 -11 -11 -11 -11 -11 -11 -11 -11 -11 -11 -11 -10 -10 -10 -10 -10 -10 -10 -10 -10 -9 -9 -9 -9 -9 -9 -10 -10 -10 -10 -10 -9 -9 -9 -9 -9 -9 -9 -9 -9 -9 -9 -9 -9 -9 -9 -8 -8 -8 -8 -8 -8 -8 -8 -8 -7 -7 -7 -7 -7 -7 -6 -6 -6 -6 -6 -6
-10 -11 -11 -11 -11 -11 -11 -11 -11 -11 -11 -11 -10 -10 -10 -10 -10 -10 -10 -10 -10 -9 -9 -9 -9 -9 -10 -10 -10 -10 -10 -10 -10 -10 -9 -9 -9 -9 -9 -9 -9 -9 -9 -9 -9 -9 -9 -9 -9 -9 -8 -8 -8 -8 -8 -8 -8 -8 -8 -7 -7 -7 -7 -7 -6 -6 -6 -6 -6
-11 -11 -11 -11 -11 -11 -11 -11 -11 -11 -11 -10 -10 -10 -10 -10 -10 -10 -10 -10 -10 -9 -9 -9 -10 -10 -10 -10 -10 -10 -10 -10 -10 -10 -9 -9 -9 -9 -9 -9 -9 -9 -9 -9 -9 -9 -9 -9 -9 -9 -9 -9 -9 -9 -8 -8 -8 -8 -8 -7 -7 -7 -7 -7 -7 -7 -6 -6 -6
-11 -11 -11 -11 -11 -11 -11 -11 -11 -11 -10 -10 -10 -10 -10 -10 -10 -10 -10 -10 -10 -10 -10 -10 -10 -10 -10 -10 -10 -10 -10 -10 -10 -10 -9 -9 -9 -9 -9 -9 -9 -9 -9 -9 -9 -9 -9 -9 -9 -9 -9 -9 -9 -9 -8 -8 -8 -8 -8 -8 -7 -7 -7 -7 -7 -7 -6 -6 -6
-11 -11 -11 -11 -11 -11 -11 -11 -11 -10 -10 -10 -10 -10 -10 -10 -10 -10 -10 -10 -10 -10 -10 -10 -10 -10 -10 -10 -10 -10 -10 -10 -10 -9 -9 -9 -9 -9 -9 -9 -9 -9 -9 -9 -10 -10 -10 -9 -9 -9 -9 -9 -9 -9 -9 -8 -8 -8 -8 -8 -7 -7 -7 -7 -7 -6 -6 -6 -6
-11 -11 -11 -11 -11 -11 -11 -10 -10 -10 -10 -10 -10 -10 -10 -10 -10 -10 -10 -10 -10 -10 -10 -10 -10 -10 -10 -9 -9 -9 -9 -9 -9 -9 -9 -9 -9 -9 -9 -9 -9 -9 -9 -10 -10 -10 -10 -10 -9 -9 -9 -9 -9 -9 -8 -8 -8 -8 -8 -8 -7 -7 -7 -7 -7 -6 -6 -6 -5
-11 -11 -10 -10 -10 -10 -10 -10 -10 -10 -10 -10 -10 -10 -10 -10 -10 -10 -10 -10 -10 -10 -10 -10 -9 -9 -9 -9 -9 -9 -9 -9 -9 -9 -9 -9 -9 -9 -9 -9 -9 -9 -9 -9 -9 -9 -9 -9 -9 -9 -9 -9 -9 -9 -8 -8 -8 -8 -8 -8 -7 -7 -7 -7 -6 -6 -6 -6 -5
-10 -10 -10 -10 -10 -10 -10 -10 -10 -10 -10 -10 -10 -10 -10 -10 -10 -10 -10 -10 -10 -10 -9 -9 -9 -9 -9 -9 -9 -9 -9 -9 -9 -9 -9 -9 -9 -9 -9 -9 -9 -9 -9 -9 -9 -9 -9 -9 -9 -9 -9 -9 -9 -8 -8 -8 -8 -8 -8 -8 -7 -7 -7 -6 -6 -6 -5 -5 -5
-10 -10 -10 -10 -10 -10 -10 -10 -10 -10 -10 -10 -10 -10 -10 -10 -10 -10 -10 -10 -9 -9 -9 -9 -9 -9 -9 -9 -9 -9 -9 -9 -9 -9 -9 -9 -9 -9 -9 -9 -9 -9 -9 -9 -9 -9 -9 -9 -9 -9 -9 -8 -8 -8 -8 -8 -8 -8 -8 -7 -7 -7 -6 -6 -6 -5 -5 -5 -4
-10 -10 -10 -10 -10 -10 -10 -10 -10 -10 -10 -10 -10 -10 -10 -10 -10 -9 -9 -9 -9 -9 -9 -9 -9 -9 -9 -9 -9 -9 -9 -9 -9 -9 -9 -9 -9 -9 -9 -9 -9 -9 -9 -9 -9 -8 -8 -8 -8 -8 -8 -8 -8 -8 -8 -8 -8 -7 -7 -7 -6 -6 -6 -5 -5 -5 -4 -4 -4
-10 -10 -10 -10 -10 -10 -10 -10 -10 -10 -10 -10 -10 -10 -9 -9 -9 -9 -9 -9 -9 -9 -9 -9 -9 -9 -9 -9 -9 -9 -9 -9 -9 -9 -9 -9 -9 -9 -9 -9 -9 -9 -8 -8 -8 -8 -8 -8 -8 -8 -8 -8 -8 -8 -8 -7 -7 -7 -6 -6 -6 -5 -5 -4 -4 -4 -4 -4 -4
-10 -10 -10 -10 -10 -10 -10 -10 -10 -10 -10 -9 -9 -9 -9 -9 -9 -9 -9 -9 -9 -9 -9 -9 -9 -9 -9 -9 -9 -9 -9 -9 -9 -9 -9 -9 -9 -9 -9 -9 -8 -8 -8 -8 -8 -8 -8 -8 -8 -8 -8 -8 -7 -7 -7 -6 -6 -6 -6 -5 -4 -4 -4 -4 -4 -4 -4 -4 -4
-10 -10 -10 -10 -10 -10 -10 -10 -10 -9 -9 -9 -9 -9 -9 -9 -9 -9 -9 -9 -9 -9 -9 -9 -9 -9 -9 -9 -9 -9 -9 -9 -9 -9 -9 -9 -9 -9 -9 -8 -8 -8 -8 -8 -8 -8 -8 -8 -7 -7 -7 -6 -6 -6 -5 -5 -5 -5 -5 -4 -4 -4 -4 -4 -4 -4 -4 -4 -4
-10 -10 -10 -10 -10 -10 -10 -9 -9 -9 -9 -9 -9 -9 -9 -9 -9 -9 -9 -9 -9 -9 -9 -9 -9 -9 -9 -9 -9 -9 -9 -9 -9 -9 -9 -9 -9 -9 -8 -8 -8 -8 -8 -8 -8 -8 -7 -7 -6 -5 -5 -5 -4 -4 -5 -5 -4 -4 -4 -4 -4 -4 -4 -4 -4 -4 -4 -4 -4
-10 -10 -10 -10 -10 -10 -9 -9 -9 -9 -9 -9 -9 -9 -9 -9 -9 -9 -9 -9 -9 -9 -9 -9 -9 -9 -9 -9 -9 -9 -9 -9 -9 -9 -9 -9 -8 -8 -8 -8 -8 -8 -8 -8 -7 -6 -5 -5 -4 -4 -4 -4 -4 -4 -4 -4 -4 -4 -4 -4 -4 -4 -4 -4 -4 -4 -4 -4 -4
-10 -10 -10 -10 -10 -9 -9 -9 -9 -9 -9 -9 -9 -9 -9 -9 -9 -9 -9 -8 -8 -8 -8 -9 -9 -9 -9 -9 -9 -9 -9 -9 -9 -8 -8 -8 -8 -8 -8 -8 -8 -8 -7 -6 -4 -4 -4 -4 -4 -4 -4 -4 -4 -5 -5 -5 -5 -5 -4 -4 -4 -4 -4 -4 -4 -4 -4 -4 -4
-10 -10 -10 -10 -9 -9 -9 -9 -9 -9 -9 -9 -9 -9 -9 -9 -9 -9 -8 -8 -8 -8 -8 -8 -9 -9 -9 -9 -9 -9 -9 -9 -8 -8 -8 -8 -8 -8 -8 -8 -8 -8 -6 -4 -3 -3 -4 -4 -4 -5 -5 -5 -5 -5 -5 -5 -5 -5 -5 -5 -5 -4 -4 -4 -4 -4 -4 -4 -4
-10 -10 -10 -9 -9 -9 -9 -9 -9 -9 -9 -9 -9 -9 -9 -9 -9 -8 -8 -8 -8 -8 -8 -8 -8 -9 -9 -9 -8 -8 -8 -8 -8 -8 -8 -8 -8 -7 -7 -7 -8 -7 -5 -3 -3 -4 -4 -5 -5 -5 -5 -5 -6 -6 -5 -5 -5 -5 -5 -5 -5 -5 -5 -4 -4 -4 -4 -4 -4
-10 -10 -9 -9 -9 -9 -9 -9 -9 -9 -9 -9 -9 -9 -9 -9 -8 -8 -8 -8 -8 -8 -8 -8 -8 -9 -9 -9 -8 -8 -8 -8 -8 -8 -8 -8 -7 -7 -7 -7 -8 -7 -5 -3 -3 -4 -4 -5 -5 -5 -6 -6 -6 -6 -6 -6 -6 -6 -6 -6 -5 -5 -5 -5 -5 -4 -4 -4 -4
-10 -10 -9 -9 -9 -9 -9 -9 -9 -9 -9 -9 -9 -9 -9 -9 -8 -8 -8 -8 -8 -8 -8 -8 -8 -9 -9 -9 -8 -8 -8 -8 -8 -8 -8 -8 -7 -7 -7 -7 -8 -6 -5 -4 -4 -4 -4 -5 -5 -5 -6 -6 -6 -6 -6 -6 -6 -6 -6 -6 -6 -6 -6 -6 -5 -5 -5 -5 -4
-10 -9 -9 -9 -9 -9 -9 -9 -9 -9 -9 -9 -9 -9 -9 -8 -8 -8 -8 -8 -8 -8 -8 -9 -9 -9 -9 -9 -8 -8 -8 -8 -8 -8 -8 -7 -7 -7 -7 -7 -7 -6 -5 -4 -4 -4 -4 -4 -5 -5 -6 -6 -7 -7 -7 -7 -7 -7 -7 -7 -7 -6 -6 -6 -6 -6 -5 -5 -5
-9 -9 -9 -9 -9 -9 -9 -9 -9 -9 -9 -9 -9 -9 -8 -8 -8 -8 -8 -8 -8 -8 -9 -9 -9 -9 -9 -8 -8 -8 -8 -8 -8 -8 -8 -7 -7 -7 -7 -7 -7 -6 -5 -4 -4 -4 -4 -4 -5 -5 -6 -6 -7 -7 -7 -7 -7 -7 -7 -7 -7 -7 -7 -7 -6 -6 -6 -5 -5
-9 -9 -9 -9 -9 -9 -9 -9 -9 -9 -9 -9 -9 -8 -8 -8 -8 -8 -8 -8 -8 -8 -8 -8 -8 -8 -8 -8 -8 -8 -8 -8 -8 -8 -8 -7 -7 -7 -7 -7 -7 -6 -4 -4 -5 -5 -5 -5 -5 -5 -6 -6 -7 -7 -7 -7 -7 -7 -8 -8 -7 -7 -7 -7 -7 -7 -6 -6 -5
-9 -9 -9 -9 -9 -9 -9 -9 -9 -9 -9 -8 -8 -8 -8 -8 -8 -8 -8 -8 -8 -8 -8 -8 -8 -8 -8 -8 -8 -8 -8 -8 -8 -8 -8 -7 -7 -7 -7 -7 -7 -6 -4 -4 -5 -5 -5 -5 -5 -5 -6 -6 -7 -7 -7 -7 -7 -7 -8 -8 -7 -7 -7 -7 -7 -7 -7 -6 -5
-9 -9 -9 -9 -9 -9 -9 -9 -8 -8 -8 -8 -8 -8 -8 -8 -8 -8 -8 -8 -8 -8 -8 -8 -8 -8 -8 -8 -8 -8 -8 -8 -8 -8 -8 -7 -7 -7 -7 -7 -7 -6 -5 -5 -5 -5 -5 -5 -6 -6 -6 -6 -7 -7 -7 -7 -7 -7 -7 -7 -7 -7 -8 -8 -7 -7 -7 -6 -5
-9 -9 -9 -9 -9 -9 -9 -8 -8 -8 -8 -8 -8 -8 -8 -8 -8 -8 -8 -8 -8 -8 -8 -8 -8 -8 -8 -8 -8 -8 -8 -8 -8 -8 -8 -7 -7 -7 -7 -7 -7 -6 -5 -5 -5 -5 -5 -6 -6 -6 -6 -7 -7 -7 -7 -7 -8 -8 -8 -8 -7 -7 -7 -7 -7 -7 -7 -7 -6
-9 -9 -9 -9 -9 -8 -8 -8 -8 -8 -8 -8 -8 -8 -8 -8 -8 -8 -8 -8 -8 -8 -8 -8 -8 -8 -8 -8 -8 -8 -8 -8 -8 -8 -8 -7 -7 -7 -7 -7 -7 -6 -5 -5 -5 -5 -5 -6 -6 -6 -7 -7 -7 -8 -8 -8 -8 -8 -8 -8 -8 -8 -7 -7 -7 -7 -7 -7 -6
-9 -9 -9 -8 -8 -8 -8 -8 -8 -8 -8 -8 -8 -8 -8 -8 -8 -8 -8 -8 -8 -8 -8 -8 -8 -8 -8 -8 -8 -8 -8 -8 -8 -8 -8 -7 -7 -7 -7 -7 -7 -6 -5 -5 -5 -5 -5 -6 -6 -7 -7 -7 -8 -8 -8 -8 -8 -8 -8 -8 -8 -8 -8 -7 -7 -7 -7 -7 -6
-8 -8 -8 -8 -8 -8 -8 -8 -8 -8 -8 -8 -8 -8 -8 -8 -8 -8 -8 -8 -8 -8 -8 -8 -8 -8 -8 -8 -8 -8 -8 -8 -8 -8 -8 -7 -7 -7 -7 -7 -7 -6 -6 -5 -5 -5 -5 -6 -6 -7 -7 -7 -7 -8 -8 -8 -8 -8 -8 -8 -8 -8 -8 -8 -8 -7 -7 -7 -6
-8 -8 -8 -8 -8 -8 -8 -8 -8 -8 -8 -8 -8 -8 -8 -8 -8 -8 -8 -8 -8 -8 -8 -8 -8 -8 -8 -8 -8 -8 -8 -8 -8 -8 -7 -7 -7 -7 -7 -7 -7 -6 -6 -5 -5 -5 -5 -6 -6 -7 -7 -7 -7 -8 -8 -8 -8 -8 -8 -8 -8 -8 -8 -8 -8 -8 -8 -7 -7
-8 -8 -8 -8 -8 -8 -8 -8 -8 -8 -8 -8 -8 -8 -8 -8 -8 -8 -8 -8 -8 -8 -8 -8 -8 -8 -8 -8 -8 -8 -8 -8 -8 -8 -7 -7 -7 -7 -7 -7 -7 -6 -6 -5 -5 -5 -5 -6 -6 -7 -7 -7 -7 -8 -8 -8 -8 -8 -8 -8 -8 -8 -8 -8 -8 -8 -8 -8 -7
-8 -8 -8 -8 -8 -8 -8 -8 -8 -8 -8 -8 -8 -8 -8 -8 -8 -8 -8 -8 -8 -8 -8 -8 -8 -8 -8 -8 -8 -8 -8 -8 -7 -7 -7 -7 -7 -7 -7 -7 -7 -6 -6 -5 -5 -5 -5 -6 -6 -7 -7 -7 -7 -8 -8 -8 -9 -9 -9 -9 -8 -8 -8 -8 -8 -8 -8 -8 -8
-8 -8 -8 -8 -8 -8 -8 -8 -8 -8 -8 -8 -8 -8 -8 -8 -8 -8 -8 -8 -8 -8 -8 -8 -8 -8 -8 -8 -8 -8 -8 -7 -7 -7 -7 -7 -7 -7 -7 -7 -7 -6 -6 -5 -5 -5 -5 -5 -6 -6 -7 -7 -8 -8 -8 -9 -9 -9 -9 -9 -9 -8 -8 -8 -8 -8 -8 -8 -8
-8 -8 -8 -8 -8 -8 -8 -8 -8 -8 -8 -8 -8 -8 -8 -8 -8 -8 -8 -8 -8 -8 -8 -8 -8 -8 -8 -8 -8 -8 -8 -7 -7 -7 -7 -7 -7 -7 -7 -7 -7 -7 -6 -5 -5 -5 -5 -5 -5 -6 -6 -7 -7 -8 -8 -9 -9 -9 -9 -9 -9 -9 -8 -8 -8 -8 -8 -8 -8
Height
883 882 881 880 879 877 876 874 873 872 870 869 867 865 863 862 860 858 857 855 854 852 850 848 847 845 843 841 840 838 837 835 833 832 830 829 827 825 824 822 821 819 818 816 815 813 812 810 809 807 806 804 803 801 800 799 798 796 794 793 792 790 789 787 786 785 784 783 782
883 882 881 880 878 877 875 874 873 871 870 868 867 865 863 861 860 858 856 855 853 852 850 848 846 844 842 840 839 837 836 834 832 831 829 828 826 824 823 821 820 818 817 815 813 812 811 809 808 806 804 803 801 800 799 798 796 795 793 792 790 789 788 786 785 783 783 781 780
883 881 880 879 878 876 875 873 872 870 869 867 866 864 863 861 860 858 856 854 853 851 849 847 845 843 841 839 838 836 835 833 831 829 828 826 825 823 822 820 818 817 815 814 812 811 809 808 806 805 803 801 800 798 797 796 795 793 792 790 789 788 787 785 784 783 781 780 779
883 881 880 878 877 876 875 873 872 870 868 867 865 864 863 861 859 858 856 854 852 851 849 847 844 843 841 839 837 836 834 832 831 829 827 825 823 822 820 818 817 815 814 813 811 809 808 807 805 803 802 800 798 797 796 794 793 792 791 789 788 787 785 784 783 782 780 779 777
882 881 880 878 877 876 874 873 871 870 868 867 865 864 862 861 859 858 856 854 852 850 848 846 844 842 840 838 837 835 833 831 830 828 826 824 822 820 819 817 815 814 812 811 809 808 807 805 803 802 800 798 797 795 794 793 792 790 789 788 787 786 784 783 781 780 779 778 776
882 881 879 878 877 875 874 873 871 869 868 866 865 863 862 860 859 857 855 853 852 850 848 846 844 842 840 838 836 834 832 830 828 827 825 823 821 819 817 815 814 812 811 809 808 806 805 803 802 800 798 797 795 793 793 792 790 789 788 787 785 784 783 782 780 779 778 776 775
882 881 879 878 876 875 873 872 870 869 868 866 864 863 861 860 858 857 855 853 851 849 847 845 843 841 839 837 835 833 831 829 827 825 823 822 819 818 816 814 812 811 809 808 806 805 803 802 800 798 797 795 794 792 791 790 789 788 787 785 784 783 781 780 779 778 776 775 773
882 881 879 878 876 875 873 872 870 868 867 866 864 863 861 859 858 856 854 853 850 848 847 845 843 841 839 837 835 833 831 828 826 824 823 820 818 816 814 813 811 809 808 806 804 803 802 800 799 797 795 794 792 791 789 789 788 787 785 783 782 781 779 778 777 776 775 773 772
882 880 879 878 876 875 873 872 870 868 867 865 864 862 861 859 858 856 854 852 850 848 847 844 843 841 838 837 834 832 830 828 825 823 821 819 817 815 813 811 809 807 806 804 803 801 800 798 797 795 794 793 791 789 788 787 786 785 783 782 780 779 778 777 776 775 773 772 771
882 880 879 877 876 874 873 871 870 868 867 865 864 862 861 859 858 855 853 852 850 848 846 844 842 840 838 836 833 831 829 827 824 822 820 818 816 813 812 809 808 805 804 802 801 799 798 796 795 793 792 791 789 788 786 785 784 783 781 780 778 777 776 774 774 773 772 771 770
882 880 879 877 876 874 873 871 869 868 867 865 863 862 860 859 857 855 853 852 850 848 846 844 842 839 837 835 833 830 828 826 823 821 819 817 814 812 810 808 806 804 802 800 798 797 795 794 792 791 789 788 787 786 784 783 782 780 779 778 777 775 773 772 771 771 770 769 768
882 880 879 877 876 874 872 871 869 868 866 865 863 862 860 858 857 855 853 851 849 847 845 843 841 839 836 834 832 829 827 825 823 820 818 815 813 811 809 806 804 802 799 797 796 794 793 792 790 788 787 785 784 783 782 780 779 778 777 776 775 773 772 770 769 769 769 768 767
882 880 878 877 875 874 872 871 869 868 866 864 863 861 860 858 856 854 853 851 849 847 845 843 840 838 836 833 831 828 826 823 821 819 817 814 812 809 807 804 802 799 797 794 793 792 791 789 788 786 784 783 782 781 779 778 777 776 775 774 773 771 770 769 768 768 768 767 766
882 880 878 877 875 874 872 871 869 868 866 864 863 861 860 858 856 854 853 851 848 846 844 842 840 837 835 832 830 828 825 823 820 818 815 813 811 808 805 803 799 797 794 791 790 789 788 787 785 784 782 780 779 778 777 776 775 774 773 772 771 769 768 768 768 767 767 766 764
881 880 878 877 875 874 872 871 869 868 866 864 863 861 860 858 856 854 852 850 848 846 844 841 839 836 834 832 829 827 824 822 819 817 814 812 809 806 803 800 797 794 791 788 786 785 785 784 783 781 780 778 776 775 774 773 773 772 771 770 769 768 768 767 767 766 765 764 763
881 880 878 877 875 874 872 871 869 868 866 865 863 861 860 858 856 854 852 850 848 845 843 841 838 835 833 830 828 826 823 821 818 816 813 810 808 805 802 798 795 792 788 785 783 782 781 780 780 778 777 775 774 773 772 771 770 770 769 768 768 767 766 766 766 765 765 764 765
881 880 878 877 875 874 872 871 869 868 866 865 863 862 860 858 856 854 852 849 847 845 842 840 837 835 832 830 827 825 823 820 818 815 812 809 806 803 800 796 793 790 786 783 781 778 777 776 776 774 773 772 771 770 769 768 768 768 767 767 767 766 765 765 765 765 765 766 766
881 880 878 877 875 874 872 871 869 868 867 865 863 862 860 858 855 853 851 849 847 844 842 839 837 834 832 829 827 824 822 819 817 814 812 809 805 802 798 795 791 787 784 781 778 776 774 772 771 770 769 769 768 767 767 766 766 766 766 766 766 766 765 766 766 766 766 766 765
882 880 878 877 875 874 873 871 870 868 867 865 863 861 859 857 855 853 850 848 846 844 841 838 836 833 831 828 826 824 822 819 816 813 811 808 805 801 798 793 788 784 780 777 774 772 770 768 768 766 765 765 765 765 765 765 765 766 766 766 767 767 767 767 767 767 766 766 765
882 880 879 877 876 874 873 871 870 868 867 865 863 861 858 856 854 852 850 848 845 843 841 838 836 833 830 828 826 823 821 818 816 813 810 807 804 800 797 792 787 781 776 772 769 767 766 765 763 763 762 762 763 763 764 764 765 766 767 768 768 768 768 767 767 767 766 766 765
882 881 879 878 876 874 873 871 870 868 867 865 863 860 858 856 854 852 849 848 845 843 840 838 836 833 830 828 825 823 820 818 815 813 810 807 803 800 796 791 786 779 773 768 765 763 762 762 761 761 761 761 762 763 764 765 766 767 768 768 768 768 768 768 768 767 766 766 765
882 881 879 878 876 874 873 872 870 868 866 864 862 860 858 856 853 851 849 847 845 843 840 838 836 833 830 828 825 823 820 818 815 813 810 806 803 799 795 790 785 778 771 765 761 759 759 760 761 761 762 762 763 764 765 766 767 768 768 768 768 769 769 768 768 767 767 766 765
883 881 879 878 876 875 873 871 870 868 866 864 862 860 858 855 853 851 849 847 844 842 840 838 835 833 831 828 826 823 820 818 815 812 809 806 803 798 794 789 784 778 771 765 761 760 760 761 763 763 764 764 765 766 767 767 768 768 769 769 770 770 770 769 769 768 767 766 765
883 881 879 878 876 874 873 871 869 868 866 864 862 859 858 855 853 851 848 846 844 842 839 837 835 833 831 828 826 823 821 818 815 813 809 806 803 798 793 789 785 780 775 770 766 764 763 764 765 766 767 767 768 768 768 768 769 770 770 771 771 771 771 770 770 769 768 767 766
883 881 879 878 876 874 873 871 869 867 865 863 862 859 858 855 853 851 848 846 844 842 839 837 835 833 832 829 826 823 821 819 816 813 810 807 803 798 794 790 786 783 780 776 772 770 769 769 769 769 770 770 770 770 770 770 771 772 773 773 773 773 772 771 770 769 769 768 767
883 881 879 878 876 874 872 871 869 867 865 863 861 859 858 855 853 851 849 846 844 842 839 837 835 834 832 830 827 824 821 819 817 815 812 808 804 800 796 793 789 787 784 780 777 775 774 774 774 773 773 773 773 773 773 773 774 774 774 774 774 774 773 772 771 771 770 769 768
882 881 879 878 876 874 872 871 869 867 865 863 861 859 858 856 853 851 849 846 844 842 839 838 836 834 833 830 828 825 823 820 818 816 813 810 806 803 799 796 792 789 787 784 782 780 779 779 778 778 777 776 776 776 776 777 777 777 776 776 775 775 774 773 773 772 771 770 769
882 881 879 878 876 874 872 871 869 867 865 863 861 859 858 856 853 851 849 847 844 842 840 838 836 835 833 831 828 826 824 822 819 817 814 812 808 805 802 798 795 793 790 788 786 784 783 783 783 782 781 780 779 779 779 780 779 779 778 778 777 776 775 774 774 773 773 772 770
882 881 879 878 876 874 872 871 869 867 865 863 862 860 858 856 853 851 849 847 845 843 840 838 837 835 834 832 830 828 825 823 820 818 816 813 810 807 804 801 799 797 794 792 789 788 787 786 786 785 785 783 783 782 782 782 782 781 780 779 778 778 777 776 775 774 773 773 772
882 881 879 878 876 874 872 871 869 868 866 864 862 860 858 856 854 852 849 847 845 844 842 840 838 836 834 833 831 829 826 824 822 819 817 815 812 809 806 803 802 799 797 795 793 792 790 790 789 788 788 787 786 785 784 784 783 783 782 781 780 779 778 777 776 775 774 773 772
882 881 879 878 876 874 873 871 869 868 866 864 862 860 858 856 854 852 850 848 846 844 843 840 838 836 834 833 832 830 828 825 823 821 819 817 814 811 808 806 804 802 799 798 796 794 793 793 792 791 790 789 788 787 787 786 785 785 784 783 782 781 780 779 777 776 775 774 773
882 881 879 878 876 874 873 871 869 868 866 864 862 860 858 857 855 853 851 849 847 845 843 840 838 836 834 833 832 830 828 827 824 822 820 818 816 813 811 808 806 804 802 800 798 797 796 795 794 793 792 791 790 789 788 788 787 786 785 784 783 782 781 780 778 777 776 774 774
882 881 879 878 876 875 873 872 870 868 866 865 863 861 859 857 855 853 851 849 848 846 843 841 839 837 835 834 832 831 829 828 826 824 822 820 817 815 812 810 808 806 804 803 801 799 798 797 796 795 794 793 792 791 790 789 788 788 787 785 784 783 782 781 780 778 777 775 775
882 881 879 878 877 875 873 872 870 868 867 865 863 861 859 857 855 853 851 850 848 847 845 843 841 839 837 835 833 832 830 828 827 825 823 821 819 816 813 811 810 808 807 804 803 801 800 799 798 797 796 794 793 793 792 791 790 789 788 787 786 784 783 782 781 779 778 777 776
883 881 880 878 877 875 874 872 870 868 867 865 863 861 859 858 856 854 852 851 849 847 846 843 842 840 838 836 834 833 831 829 828 826 824 822 820 818 815 813 811 810 809 806 804 803 802 801 800 799 798 796 795 794 793 792 791 791 790 788 787 786 785 783 782 780 779 778 777
883 881 880 878 877 876 874 872 870 869 867 865 863 862 860 858 856 855 853 851 849 848 846 844 842 840 838 837 835 833 832 830 829 827 825 823 821 819 817 814 812 811 810 808 806 804 803 803 802 801 800 798 797 796 795 794 793 793 792 790 789 788 787 785 784 782 780 779 778
883 881 880 878 877 876 874 872 871 869 867 865 864 862 860 858 857 855 853 852 850 848 847 845 843 841 839 838 836 835 833 832 830 828 827 825 823 821 818 815 813 812 812 810 807 805 805 804 804 803 802 800 799 798 797 796 795 794 793 792 791 790 789 788 786 784 783 781 779
883 882 880 879 878 876 874 873 871 869 868 866 864 863 861 859 858 856 854 852 851 849 847 846 844 842 841 839 837 836 834 833 831 829 828 826 824 823 820 817 814 813 812 810 808 807 806 805 805 805 804 803 802 801 800 799 798 797 795 794 793 792 791 789 788 786 784 783 782
883 882 880 879 878 876 874 873 871 869 868 866 865 863 861 859 858 856 855 853 851 850 848 846 845 843 842 840 838 836 835 833 832 830 829 828 826 824 822 819 817 815 813 811 809 808 807 806 806 806 806 805 804 803 802 801 800 798 797 796 795 793 792 791 790 788 787 785 783
883 882 880 879 878 876 874 873 871 870 868 867 865 863 861 860 858 857 855 853 852 850 848 847 846 844 843 841 839 837 835 834 833 831 830 828 827 826 824 822 819 817 816 814 812 810 808 808 807 807 807 806 805 804 803 802 801 800 798 797 796 794 793 792 791 790 788 786 785
883 882 881 879 878 876 874 873 871 870 868 867 865 863 862 860 858 857 855 853 852 850 849 847 846 845 843 841 839 838 836 834 833 832 831 829 828 827 825 823 821 820 818 816 815 813 811 810 809 808 807 807 806 805 804 803 801 800 799 798 797 795 794 793 792 790 789 787 786
Wind_Speed
25 24 22 20 19 19 20 20 20 20 22 23 23 23 23 22 21 21 20 20 20 20 21 21 22 23 25 26 26 25 25 26 27 27 27 26 26 26 26 26 25 25 26 26 26 26 25 24 24 23 23 21 21 21 21 20 21 23 24 24 24 24 25 24 24 23 23 23 23
25 25 23 22 21 22 22 22 21 22 24 24 23 23 22 22 21 20 20 21 21 21 22 23 24 25 26 26 25 25 25 26 27 28 27 26 26 26 26 26 26 26 26 26 26 25 24 24 24 23 23 22 21 21 22 21 22 23 24 24 24 24 23 22 21 22 23 23 24
26 26 25 24 25 25 24 23 23 25 26 24 23 22 22 21 20 20 20 21 22 23 23 23 25 26 26 26 26 25 26 27 27 27 27 26 26 26 26 26 26 26 26 26 26 25 25 25 24 23 23 22 22 22 23 23 23 23 23 23 23 22 21 20 21 22 23 23 23
27 26 26 25 25 25 25 23 25 26 25 23 22 22 22 21 20 20 21 22 23 23 23 24 26 26 26 26 27 27 28 28 28 27 27 27 27 27 27 27 27 27 27 26 26 26 26 25 24 23 23 23 23 23 23 23 23 23 22 22 22 21 21 22 22 22 22 22 23
27 27 26 25 25 25 25 24 25 26 25 22 22 22 22 22 22 22 22 23 23 23 25 26 26 25 26 26 28 28 29 28 27 27 27 27 27 27 27 27 27 27 27 27 26 26 26 25 24 23 22 22 22 23 23 24 23 23 22 22 22 22 22 23 23 23 22 22 23
27 27 26 26 25 25 25 25 25 25 24 22 23 24 24 24 23 23 24 24 24 25 26 26 25 25 26 27 28 28 28 27 27 27 27 27 27 28 28 28 28 27 27 26 26 26 26 25 24 23 23 22 22 22 23 23 22 22 22 23 23 23 23 23 23 23 23 23 24
27 27 26 26 25 25 25 26 26 25 24 23 23 25 26 26 25 25 25 25 25 25 25 25 25 26 27 28 28 28 28 28 27 27 27 27 28 28 28 28 28 27 27 26 26 26 25 25 24 24 23 23 22 22 22 22 22 23 24 25 25 24 24 24 24 24 24 24 25
26 26 26 25 24 25 26 26 25 25 24 23 24 25 26 26 26 25 26 25 25 25 25 25 26 27 28 28 28 28 28 28 28 28 27 27 28 29 29 29 28 28 27 27 26 26 26 25 24 23 23 23 22 22 22 23 24 25 26 27 26 26 25 24 24 24 25 25 27
26 26 25 25 24 24 25 26 25 24 23 23 24 25 26 25 25 25 26 25 25 26 26 26 26 27 27 28 28 28 28 27 28 28 28 28 28 28 29 29 28 28 28 28 27 27 27 26 24 23 23 23 23 24 25 26 27 28 28 27 27 26 25 25 25 25 26 26 26
26 26 25 25 25 25 25 25 24 23 22 23 24 25 25 25 25 25 25 25 25 26 26 26 26 27 28 28 28 28 27 27 27 28 28 28 28 28 28 28 29 29 29 29 28 28 28 26 24 24 24 24 25 26 28 28 28 28 27 27 26 26 27 27 26 26 26 26 25
26 25 24 24 25 25 25 25 23 22 22 23 24 25 25 25 26 25 25 25 26 26 26 26 26 27 28 28 28 28 28 27 27 28 28 28 28 28 29 29 29 30 31 31 30 29 27 25 25 25 26 26 26 27 28 28 28 27 27 27 27 27 28 28 27 26 25 24 24
25 24 24 24 25 25 25 24 23 23 23 24 25 25 25 25 26 25 25 26 26 25 26 26 27 27 27 28 28 28 28 28 28 28 28 28 28 29 29 30 31 32 33 33 32 30 28 26 26 27 28 28 28 27 27 28 28 28 28 28 28 27 27 27 27 25 24 23 23
24 24 24 25 25 25 24 24 23 23 23 24 25 25 25 25 25 25 25 26 26 26 26 27 27 27 27 28 29 29 29 29 29 29 28 28 29 29 30 31 33 34 35 34 33 30 28 28 28 29 29 29 29 29 28 28 28 28 28 28 28 27 26 26 26 25 24 23 23
24 24 25 25 25 25 24 24 23 23 23 24 25 25 25 25 25 25 25 26 26 26 27 27 27 27 28 28 29 29 30 30 29 29 29 29 29 30 31 33 35 36 36 36 34 32 30 29 29 29 29 30 30 30 30 29 28 28 28 27 27 27 26 26 25 24 23 23 22
24 24 25 25 25 24 24 24 23 23 23 24 25 25 25 25 25 25 25 26 26 27 27 28 28 29 29 30 30 30 30 30 30 29 29 30 30 32 33 35 36 37 38 38 37 34 32 30 29 29 30 30 31 31 31 29 28 27 27 27 27 27 26 25 24 22 22 21 20
23 24 24 24 24 24 24 24 23 23 24 24 25 25 25 25 25 26 26 26 27 27 28 29 29 30 31 31 31 31 31 31 30 30 30 31 32 34 35 37 37 38 38 38 38 37 35 32 31 31 31 31 31 30 30 29 28 27 26 25 25 25 24 23 21 19 17 15 13
24 24 24 24 24 24 24 24 23 23 24 25 25 25 25 26 26 27 27 27 27 28 29 31 31 32 32 33 33 32 31 31 31 30 31 32 34 35 37 37 38 38 38 39 39 38 37 36 34 33 32 31 30 29 29 28 26 25 24 23 22 21 19 17 15 12 10 11 14
23 24 24 24 24 24 24 24 24 24 25 25 26 26 26 27 28 28 28 28 29 29 31 32 33 33 33 34 34 33 32 31 31 31 32 33 35 36 37 38 38 39 39 39 39 39 38 37 35 33 32 30 29 27 25 24 22 21 20 18 16 14 12 11 10 11 13 16 18
23 24 24 24 24 24 24 24 24 24 25 26 26 27 27 28 29 29 29 29 30 31 32 33 34 34 35 35 34 34 33 32 32 33 34 35 36 36 37 39 40 41 42 41 40 39 38 37 35 33 31 28 24 21 18 17 16 16 14 11 9 11 13 15 16 16 17 18 18
23 24 24 24 24 24 24 24 24 25 25 26 27 28 28 29 29 29 30 31 32 32 33 34 35 35 35 35 35 34 34 33 33 34 35 36 36 37 38 39 42 44 45 44 43 41 39 35 31 27 23 19 15 12 10 10 10 8 7 12 17 20 20 19 17 16 16 16 17
24 24 24 24 24 24 24 24 24 25 26 27 27 28 29 29 30 30 31 32 33 34 34 35 35 35 35 35 34 34 34 34 34 35 35 36 36 37 38 40 42 45 47 46 45 42 35 26 20 15 12 9 7 6 5 5 8 15 20 23 25 24 22 20 18 17 15 14 14
24 24 24 24 24 24 24 24 25 26 26 27 28 29 29 30 30 31 32 33 34 35 35 35 35 35 35 34 34 34 34 35 35 35 36 36 37 38 39 40 42 45 47 46 40 29 19 12 9 9 9 9 11 13 16 20 25 27 29 28 28 27 25 24 23 22 19 17 15
24 24 24 24 24 24 25 25 25 26 27 27 28 29 30 30 31 32 33 34 35 36 36 35 35 34 34 34 34 34 34 35 35 35 36 37 37 39 40 40 42 45 45 39 25 19 20 20 21 22 24 25 26 28 30 31 33 32 32 30 29 28 28 27 27 26 24 22 20
24 24 24 24 25 25 26 26 26 27 28 28 28 29 30 30 32 33 34 35 36 36 36 35 35 34 33 33 34 35 34 34 35 35 36 37 38 40 41 41 43 42 38 32 30 33 35 34 33 33 33 33 33 33 34 35 35 33 32 30 29 28 28 28 28 27 27 26 25
24 24 24 24 25 26 26 27 27 28 28 29 29 29 30 31 32 33 34 35 36 36 36 35 34 33 32 32 34 35 35 34 34 34 36 37 39 40 41 42 42 38 33 36 39 40 39 37 35 34 33 32 32 33 34 35 34 32 30 29 28 27 28 28 28 28 28 28 27
24 24 24 25 26 27 27 28 28 29 29 29 29 29 30 31 32 33 34 35 35 35 35 34 33 32 30 31 33 34 34 34 33 33 34 36 38 40 41 41 41 35 32 39 42 42 39 37 35 34 33 31 31 31 32 32 32 30 29 27 27 26 26 27 27 28 28 28 28
24 24 24 25 26 27 28 28 29 29 29 29 29 29 30 30 32 33 34 35 35 35 34 33 32 30 29 29 31 33 33 33 33 33 33 35 36 38 39 40 39 35 33 38 40 40 39 37 36 34 33 33 31 30 29 29 29 29 28 27 26 26 26 25 25 25 26 27 28
25 24 25 26 27 27 28 28 29 29 29 29 29 29 29 30 32 33 34 34 34 33 32 32 31 30 29 28 29 31 32 33 32 32 33 34 35 36 37 38 38 35 34 37 38 38 37 36 35 34 33 33 32 31 29 27 27 27 28 27 27 26 26 25 24 23 24 25 26
25 25 25 26 27 27 28 28 28 28 28 28 28 29 29 30 32 33 34 34 33 31 30 30 30 29 29 28 28 30 31 32 31 31 32 33 34 35 37 37 36 34 34 36 36 36 35 34 33 32 31 31 31 30 29 27 26 26 27 28 28 27 26 26 25 23 22 22 24
26 26 26 26 27 27 27 27 27 27 27 27 28 29 29 30 32 33 33 33 32 30 29 29 30 30 29 28 27 28 30 31 31 31 31 33 33 34 36 36 35 34 34 34 35 34 33 32 30 29 28 28 29 30 29 28 27 27 27 28 29 29 28 27 26 25 24 22 22
26 26 26 26 26 26 26 26 27 27 27 27 28 28 29 30 31 32 33 32 30 30 29 30 30 30 29 27 27 28 30 30 30 31 31 32 32 33 35 35 34 34 35 33 34 33 32 30 28 27 26 26 27 28 28 28 28 28 29 29 30 30 29 28 28 27 26 23 22
26 26 25 25 25 25 25 26 26 26 26 26 27 28 29 30 31 32 32 31 30 29 30 30 30 30 29 28 27 28 29 29 30 30 31 31 32 33 34 34 33 33 35 33 34 34 33 31 29 27 25 24 25 26 27 27 28 28 29 30 30 30 30 29 29 29 28 26 22
26 25 25 24 24 24 25 26 26 26 26 26 26 28 29 30 31 32 31 30 29 28 28 29 29 29 29 27 28 28 29 28 29 30 30 31 31 33 33 33 31 33 35 33 33 34 34 32 31 28 26 24 24 25 25 26 26 27 28 29 30 30 30 30 30 30 30 28 24
25 25 24 24 23 24 25 25 25 25 25 25 26 28 29 30 30 31 31 29 28 27 27 27 28 28 28 27 27 28 28 28 29 29 30 30 31 33 33 33 31 33 34 32 33 34 34 34 33 31 28 26 25 25 24 25 25 26 27 28 29 30 30 30 31 31 30 29 26
25 24 23 23 23 24 25 25 25 25 25 26 27 28 29 30 30 30 29 28 27 27 27 27 28 28 27 26 27 27 27 28 28 29 29 30 31 32 34 34 32 33 33 32 32 32 34 34 33 32 31 29 28 26 25 24 24 25 27 28 29 29 30 30 30 31 31 30 28
24 24 23 22 23 24 25 25 25 25 25 26 27 28 29 29 29 29 28 27 27 27 26 27 27 28 27 26 26 26 27 27 27 28 28 29 30 31 33 34 34 33 32 33 31 31 32 33 33 33 33 32 30 28 26 24 24 24 25 26 27 28 29 29 29 30 30 30 29
24 23 22 22 23 24 25 25 25 25 26 26 27 28 28 29 29 28 28 27 27 26 26 26 27 27 27 25 25 25 25 25 26 27 28 28 29 30 32 34 34 32 31 34 32 30 30 31 32 33 34 33 31 29 27 25 24 23 24 24 25 26 27 27 28 29 29 29 28
24 23 22 22 23 24 25 25 25 25 26 27 27 28 28 28 27 27 27 26 26 25 25 25 26 26 25 24 23 24 24 24 25 26 27 28 28 28 30 33 34 32 32 35 34 31 28 28 29 30 32 32 31 29 26 25 23 23 22 22 23 23 24 25 26 26 27 27 26
24 23 23 22 23 24 25 25 25 25 26 27 27 28 27 27 27 26 26 26 25 25 24 24 25 24 23 22 22 23 23 23 24 25 26 27 26 26 28 30 32 32 32 33 35 33 30 27 26 26 27 28 28 26 25 23 22 21 21 21 21 21 22 23 23 24 25 26 25
23 23 23 23 24 25 25 25 25 25 26 27 27 27 27 27 26 26 26 25 25 24 23 23 23 23 22 21 21 22 22 22 23 24 25 25 26 26 26 28 29 30 31 31 32 34 33 29 26 24 24 25 24 24 23 22 21 20 20 19 19 19 20 20 21 22 23 24 24
23 23 23 23 24 25 25 25 25 25 26 26 27 26 26 26 27 26 26 25 25 25 23 22 22 22 21 20 20 21 21 21 21 22 23 24 25 26 26 27 27 28 28 29 29 31 32 31 27 24 23 22 23 22 22 22 21 21 20 19 19 19 19 19 20 21 21 22 23
Wind_Direction
349 349 348 345 342 339 337 336 335 334 333 332 331 329 328 327 325 323 323 323 321 320 318 317 316 315 316 316 316 317 318 320 321 321 320 318 317 317 317 317 317 317 316 316 316 315 314 314 313 312 311 308 307 306 304 303 301 299 298 297 296 296 297 297 296 296 298 299 299
350 350 350 348 345 342 340 338 336 335 334 333 332 331 330 328 327 325 323 322 321 320 318 317 316 315 315 315 315 316 317 319 320 320 319 318 317 317 316 316 316 316 316 315 315 314 313 313 311 310 309 307 306 304 303 301 299 298 297 297 296 296 296 296 296 297 299 300 299
352 352 352 350 348 346 343 339 337 336 335 334 333 332 331 330 328 326 323 322 322 321 319 317 317 316 316 315 316 317 317 319 319 318 318 317 317 317 316 315 315 315 315 314 314 313 312 311 310 309 307 306 304 302 300 298 297 296 296 296 297 297 297 296 297 298 299 299 298
354 353 352 350 349 347 344 340 338 337 336 335 334 334 334 332 330 327 325 323 323 322 320 318 317 317 318 318 319 319 319 320 319 319 318 317 316 316 315 315 315 314 314 314 313 312 310 310 309 307 305 303 301 298 297 297 296 295 294 295 296 297 297 297 297 298 297 297 297
354 354 352 350 349 347 344 342 340 339 338 336 336 336 335 334 331 329 328 327 325 323 322 321 319 319 320 321 322 322 321 321 320 319 318 317 316 316 315 315 314 314 313 313 312 311 310 309 307 305 302 300 298 296 294 295 295 294 294 295 296 297 297 297 297 297 296 295 295
353 353 352 351 349 347 345 344 343 341 340 338 338 337 336 334 332 331 330 327 326 325 324 324 323 323 324 324 324 324 324 322 321 320 318 317 316 316 315 315 314 313 312 312 311 310 310 308 307 305 302 299 297 295 295 295 295 294 295 296 297 296 296 295 295 295 295 294 294
352 352 352 351 350 348 347 346 345 344 342 340 339 339 338 336 334 332 329 328 327 327 327 327 327 328 328 327 327 326 325 323 321 320 319 318 317 316 315 315 314 313 312 311 311 310 309 308 306 303 302 299 297 296 296 296 295 295 295 296 296 296 295 295 294 294 294 294 294
352 352 352 351 350 349 348 347 346 345 343 341 340 339 339 338 335 333 331 330 329 329 329 329 329 330 329 329 328 326 325 323 322 322 320 319 318 317 316 315 314 313 312 311 311 310 309 307 305 302 300 299 298 297 297 297 296 296 295 295 295 295 294 294 294 294 294 294 294
352 351 351 351 350 349 348 348 346 344 342 341 340 340 339 337 335 333 332 331 331 331 331 331 331 331 330 329 327 326 325 324 323 322 321 320 318 317 316 315 315 313 312 311 310 309 308 306 303 300 298 298 297 297 297 297 296 296 295 294 294 294 294 294 293 293 293 293 293
351 350 350 350 349 348 348 347 346 344 342 341 340 340 339 338 336 334 333 332 333 333 333 333 332 331 330 328 327 326 324 323 322 321 321 319 319 317 316 315 314 313 312 310 309 308 306 304 302 299 297 296 296 295 296 296 295 295 294 294 293 293 293 293 292 292 291 292 292
349 349 348 348 347 347 347 346 344 343 342 341 340 339 339 338 337 336 335 336 335 335 334 334 332 331 329 328 327 326 324 323 321 320 320 319 318 317 316 315 313 312 310 309 308 307 305 303 301 299 297 296 295 295 295 295 295 294 293 293 292 292 292 292 292 292 292 293 294
348 347 347 347 347 347 346 346 343 342 342 342 341 340 339 339 339 339 339 338 337 336 335 334 333 331 329 328 326 325 324 323 322 320 319 319 318 317 316 314 313 311 309 308 308 306 305 302 300 299 298 298 297 296 295 295 295 294 293 293 292 291 291 291 292 293 294 296 296
348 347 347 347 347 347 346 345 343 343 342 342 342 342 341 340 341 341 341 340 338 337 336 334 333 331 329 328 327 326 325 324 323 321 320 319 318 317 316 314 313 312 310 309 308 306 304 302 300 299 298 299 297 296 295 294 293 292 292 292 291 290 289 290 293 296 298 299 298
349 348 347 347 348 347 346 345 344 343 343 343 343 343 343 342 343 342 341 340 338 337 335 334 334 332 330 328 327 327 327 326 325 323 321 320 318 317 316 315 314 313 312 311 309 307 305 303 301 300 298 297 296 296 295 294 292 291 290 289 289 289 290 292 296 299 300 300 300
349 349 349 349 349 348 347 346 346 345 344 345 345 345 345 344 344 342 341 339 338 337 335 334 333 332 331 330 329 328 328 328 327 325 323 322 320 319 317 317 316 315 314 312 311 309 306 303 301 300 298 296 295 295 294 293 291 289 289 288 289 290 293 295 299 301 302 302 304
351 351 351 350 350 350 349 348 347 347 346 346 346 346 346 345 344 342 340 338 338 338 336 334 333 332 332 332 332 331 330 330 329 327 325 323 323 321 320 319 318 317 315 313 312 310 308 305 302 299 296 294 293 292 292 291 290 290 290 290 292 294 296 299 301 304 308 315 331
353 353 352 352 352 351 350 350 349 348 348 348 347 347 346 345 343 342 341 339 338 336 336 335 333 332 331 332 333 333 332 330 329 328 327 325 324 323 322 321 319 318 316 313 311 309 307 305 302 298 295 292 291 290 289 290 290 291 293 295 298 300 304 308 313 323 344 12 27
355 354 353 353 352 352 352 351 351 350 349 348 348 347 346 344 343 342 341 340 338 335 334 334 334 333 332 333 334 334 333 331 330 329 328 327 326 325 324 323 321 319 316 312 309 306 304 302 301 299 296 293 291 290 290 290 291 294 298 302 308 318 333 352 11 32 45 48 42
356 355 355 354 353 353 353 352 351 350 349 349 347 346 346 345 343 341 341 340 339 337 335 334 334 334 334 334 335 335 334 332 331 330 330 330 329 328 327 325 323 320 316 312 308 305 304 303 302 301 299 296 294 292 291 293 296 301 309 324 357 26 41 49 57 61 60 53 44
356 356 355 354 353 352 353 352 351 350 350 349 347 346 345 345 343 341 341 340 339 338 337 336 335 335 335 336 336 336 336 334 333 332 332 332 332 331 330 328 325 321 317 313 310 308 306 306 307 307 306 304 302 298 297 303 309 329 20 53 59 60 61 62 64 64 61 55 48
356 355 354 353 353 352 351 350 350 350 350 349 347 346 345 344 343 342 341 341 340 340 339 339 338 337 337 337 337 337 336 336 335 335 334 334 334 332 331 329 326 321 318 316 314 313 313 315 319 322 325 327 333 335 344 16 56 69 70 68 64 61 58 56 53 51 50 50 49
355 354 353 352 352 351 350 350 350 350 350 349 348 346 346 345 344 344 343 342 342 342 341 341 340 340 339 339 338 338 338 338 338 338 338 337 336 335 333 330 327 324 322 321 323 327 336 352 15 35 47 51 56 66 74 77 76 73 69 64 60 56 52 49 45 41 39 38 39
354 354 353 352 351 351 350 349 349 350 350 349 348 347 346 345 345 345 344 344 344 343 343 343 343 342 342 341 341 340 340 341 341 342 342 341 340 338 336 333 332 330 331 338 356 32 57 65 68 70 70 71 73 75 75 74 71 67 63 60 56 53 50 47 43 39 35 32 30
354 353 352 351 351 350 350 349 349 349 348 348 348 347 346 346 346 345 345 345 345 345 344 344 344 345 345 344 343 343 344 344 344 345 345 345 344 342 340 339 339 339 347 17 46 63 68 69 69 68 68 68 68 68 67 66 64 62 59 56 53 50 48 45 42 39 34 30 26
354 353 353 352 351 350 350 349 348 348 348 348 348 347 347 347 346 346 345 345 346 346 345 345 346 347 347 346 346 347 348 348 347 347 346 346 347 346 344 343 342 348 8 39 52 58 60 63 63 62 60 59 59 60 60 60 60 58 55 52 49 47 44 42 40 37 33 29 25
355 353 352 351 350 350 349 348 348 349 349 349 348 348 348 348 347 347 346 346 346 346 346 347 347 348 348 348 349 349 350 350 350 350 349 348 348 347 347 346 345 353 17 40 47 51 54 57 57 57 55 53 53 54 54 55 55 54 51 48 45 43 40 38 35 33 31 27 24
354 352 350 350 350 349 349 349 350 350 351 351 350 349 349 348 348 348 347 347 346 346 347 347 348 349 350 350 350 350 351 352 353 352 352 351 349 349 349 350 349 357 17 35 42 46 50 52 54 54 54 53 51 50 49 48 48 47 45 42 40 38 36 33 31 28 26 24 21
353 351 350 350 349 349 350 351 352 352 352 352 351 350 349 349 349 349 348 347 347 347 347 348 349 350 351 351 351 351 352 354 355 355 355 354 353 352 351 352 354 4 21 33 37 42 46 49 51 52 52 51 49 48 46 44 42 40 38 36 34 33 31 29 26 24 22 20 19
352 351 350 349 349 350 351 352 353 353 353 352 352 351 351 351 351 350 348 348 347 348 348 348 350 351 352 352 352 353 355 356 358 358 357 357 356 355 355 355 360 12 28 35 36 37 40 44 46 48 48 48 46 45 43 41 38 36 35 33 31 30 27 25 21 19 17 17 17
352 350 350 350 351 351 353 354 355 355 354 354 353 353 352 352 351 350 349 348 348 348 349 350 352 353 353 353 354 356 357 359 0 1 1 360 358 357 358 359 5 19 33 39 37 37 38 40 41 43 43 43 43 42 40 38 37 35 33 32 30 28 26 23 19 16 13 13 16
352 351 351 352 353 353 354 355 356 356 356 356 354 354 353 353 352 350 350 349 349 350 351 353 354 354 354 355 356 358 360 2 3 3 2 1 0 360 0 2 8 22 35 42 40 38 38 38 38 38 39 39 39 37 36 35 34 33 32 30 29 27 25 22 19 15 13 11 15
354 353 354 354 355 355 356 357 357 357 357 357 355 354 354 353 352 352 352 352 352 352 354 355 356 356 355 356 357 360 2 5 6 6 5 4 2 2 3 4 8 22 36 45 43 40 39 37 36 36 36 36 36 34 32 31 31 31 30 29 28 26 24 21 19 16 14 11 14
355 355 355 356 357 358 359 359 359 358 358 357 355 354 353 353 353 353 354 354 354 355 356 356 356 356 355 356 357 360 3 6 8 8 7 6 5 5 5 5 7 20 35 46 45 42 40 38 36 35 35 34 34 33 31 29 29 28 27 27 27 26 24 22 20 18 15 12 12
356 356 357 359 360 0 1 1 360 359 358 357 355 354 354 354 354 355 355 355 355 356 357 358 357 357 358 358 359 0 4 7 10 10 10 9 8 7 6 6 7 18 32 46 47 44 42 39 37 35 35 35 35 33 30 28 27 26 26 25 25 25 24 23 21 19 16 12 10
356 357 358 360 1 2 2 1 360 359 357 356 355 354 354 354 355 355 355 355 356 357 358 358 359 360 1 2 2 4 6 9 11 12 12 11 10 8 8 9 8 15 28 43 49 48 44 41 38 36 36 36 36 34 31 28 26 25 24 24 24 23 22 22 21 20 17 13 9
358 357 358 360 1 2 1 0 359 357 356 355 354 353 353 354 355 356 356 355 356 357 358 359 360 1 3 3 4 6 8 10 12 14 14 14 11 9 8 10 9 12 22 36 49 51 46 43 40 37 36 36 35 34 31 29 26 24 23 22 22 20 19 19 19 19 17 14 8
359 358 358 359 359 360 360 358 357 355 354 354 353 352 352 353 354 355 356 356 356 356 357 358 359 1 2 3 4 7 10 13 15 16 17 16 13 10 9 10 9 9 16 30 45 52 49 45 41 38 36 35 35 34 32 29 26 24 22 21 20 19 18 16 16 16 16 13 8
360 359 358 357 357 357 357 356 355 354 353 353 352 352 352 352 353 354 355 356 355 355 355 356 358 360 1 4 6 10 14 18 19 19 19 18 16 13 11 11 10 8 11 22 36 47 52 49 44 40 37 36 36 35 34 31 29 25 22 20 18 18 17 16 15 14 14 12 8
360 359 358 357 356 356 355 355 354 353 353 352 352 352 352 352 352 353 355 356 356 355 354 355 357 359 1 5 9 13 17 20 23 23 22 19 17 15 14 13 11 9 10 16 26 36 45 49 48 44 39 38 37 37 37 35 32 29 25 21 18 17 16 16 14 12 12 12 10
360 359 359 358 357 356 355 355 354 353 353 352 352 352 351 351 352 354 356 357 357 356 354 354 357 359 2 6 11 15 18 22 26 27 25 22 20 17 16 15 13 12 11 13 18 26 34 41 45 45 42 39 38 38 38 37 35 32 28 24 21 17 16 15 14 13 12 12 11
1 0 360 359 358 357 356 355 354 354 353 353 353 353 352 353 354 356 357 358 358 357 356 356 358 360 2 8 13 16 19 21 26 28 27 25 22 20 18 17 15 13 13 14 15 19 25 31 37 41 42 40 37 36 36 35 35 32 29 26 24 20 17 15 14 13 12 12 11